Weather History for Waycross, GA

Change the Weather History Date:

Thursday, June 20, 2013

  Actual Average (KAMG) Record (KAMG)
Temperature  
Mean Temperature 82 °F 80 °F  
Max Temperature 89 °F 91 °F 101 °F (1970)
Min Temperature 75 °F 70 °F 55 °F (1965)
Degree Days  
Heating Degree Days 0 0  
Month to date heating degree days 0  
Since 1 June heating degree days 0  
Since 1 July heating degree days 1659  
Cooling Degree Days 17 15  
Month to date cooling degree days 282  
Year to date cooling degree days 712  
Since 1 June cooling degree days 282  
Growing Degree Days 32 (Base 50)    
Moisture  
Dew Point 75 °F    
Average Humidity 88    
Maximum Humidity 100    
Minimum Humidity 59    
Precipitation  
Precipitation 0.00 in 0.18 in 2.75 in (1960)
Month to date precipitation 3.54  
Year to date precipitation 21.63  
Snow  
Snow 0.00 in 0.00 in 0.00 in ()
Month to date snowfall 0.0  
Since 1 June snowfall 0.0  
Since 1 July snowfall 0.1  
Snow Depth -    
Sea Level Pressure  
Sea Level Pressure 30.08 in    
Wind  
Wind Speed 3 mph (ENE)    
Max Wind Speed 20 mph    
Max Gust Speed 28 mph    
Visibility 9 miles    
Events      
T = Trace of Precipitation, MM = Missing Value Source: NWS Daily Summary

Daily Weather History Graph

Daily Weather History Graph

Search for Another Location

Airport:

Trip Planner

Search our weather history database for the weather conditions in past years. The results will help you decide how hot, cold, wet, or windy it might be!

Date:

Astronomy

Jun. 20, 2013 Rise Set
Actual Time 6:25 AM EDT 8:36 PM EDT
Civil Twilight 5:57 AM EDT 9:04 PM EDT
Nautical Twilight 5:23 AM EDT 9:38 PM EDT
Astronomical Twilight 4:46 AM EDT 10:15 PM EDT
Moon 5:43 PM EDT (6/20) 3:42 AM EDT (6/20)
Length of Visible Light 15h 06m
Length of Day
14h 10m
Waxing Gibbous, 89% of the Moon is Illuminated
Jun 20
Waxing Gibbous
Jun 23
Full
Jun 30
Last Quarter
Jul 8
New
Jul 15
First Quarter

Hourly Weather History & Observations

Time (EDT) Temp. Heat Index Dew Point Humidity Pressure Visibility Wind Dir Wind Speed Gust Speed Precip Events Conditions
12:15 AM 78.8 °F - 75.2 °F 89% 30.03 in 10.0 mi South 3.5 mph - N/A   Clear
12:35 AM 78.8 °F - 75.2 °F 89% 30.03 in 10.0 mi South 3.5 mph - N/A   Clear
12:55 AM 78.8 °F - 75.2 °F 89% 30.03 in 10.0 mi South 3.5 mph - N/A   Scattered Clouds
1:15 AM 78.8 °F - 75.2 °F 89% 30.02 in 10.0 mi Calm Calm - N/A   Clear
1:35 AM 77.0 °F - 75.2 °F 94% 30.02 in 10.0 mi Calm Calm - N/A   Scattered Clouds
1:55 AM 77.0 °F - 75.2 °F 94% 30.02 in 10.0 mi Calm Calm - N/A   Scattered Clouds
2:15 AM 77.0 °F - 75.2 °F 94% 30.02 in 10.0 mi Calm Calm - N/A   Mostly Cloudy
2:35 AM 77.0 °F - 75.2 °F 94% 30.02 in 10.0 mi Calm Calm - N/A   Mostly Cloudy
2:55 AM 77.0 °F - 75.2 °F 94% 30.02 in 10.0 mi Calm Calm - N/A   Scattered Clouds
3:15 AM 77.0 °F - 75.2 °F 94% 30.01 in 10.0 mi Calm Calm - N/A   Scattered Clouds
3:35 AM 75.2 °F - 75.2 °F 100% 30.01 in 10.0 mi Calm Calm - N/A   Clear
3:55 AM 75.2 °F - 75.2 °F 100% 30.01 in 10.0 mi Calm Calm - N/A   Clear
4:15 AM 75.2 °F - 75.2 °F 100% 30.01 in 10.0 mi Calm Calm - N/A   Clear
4:35 AM 75.2 °F - 75.2 °F 100% 30.00 in 7.0 mi Calm Calm - N/A   Clear
4:55 AM 75.2 °F - 75.2 °F 100% 30.00 in 7.0 mi Calm Calm - N/A   Clear
5:15 AM 75.2 °F - 75.2 °F 100% 30.01 in 5.0 mi Calm Calm - N/A   Mostly Cloudy
5:35 AM 75.2 °F - 75.2 °F 100% 30.02 in 7.0 mi Calm Calm - N/A   Mostly Cloudy
5:55 AM 75.2 °F - 75.2 °F 100% 30.03 in 7.0 mi Calm Calm - N/A   Overcast
6:15 AM 75.2 °F - 75.2 °F 100% 30.04 in 5.0 mi Calm Calm - N/A   Overcast
6:35 AM 75.2 °F - 75.2 °F 100% 30.05 in 5.0 mi NNW 3.5 mph - N/A   Mostly Cloudy
6:55 AM 75.2 °F - 75.2 °F 100% 30.06 in 7.0 mi North 3.5 mph - N/A   Mostly Cloudy
7:15 AM 75.2 °F - 75.2 °F 100% 30.06 in 7.0 mi Calm Calm - N/A   Overcast
7:35 AM 75.2 °F - 75.2 °F 100% 30.07 in 7.0 mi NNE 5.8 mph - N/A   Overcast
7:55 AM 75.2 °F - 75.2 °F 100% 30.07 in 4.0 mi NE 5.8 mph - N/A   Overcast
8:15 AM 75.2 °F - 75.2 °F 100% 30.08 in 4.0 mi NNE 3.5 mph - N/A   Overcast
8:35 AM 75.2 °F - 75.2 °F 100% 30.09 in 5.0 mi NNE 4.6 mph - N/A   Overcast
8:55 AM 75.2 °F - 75.2 °F 100% 30.10 in 7.0 mi NNE 6.9 mph - N/A   Overcast
9:15 AM 77.0 °F - 75.2 °F 94% 30.10 in 7.0 mi East 3.5 mph - N/A   Overcast
9:35 AM 77.0 °F - 75.2 °F 94% 30.11 in 7.0 mi Calm Calm - N/A   Overcast
9:55 AM 77.0 °F - 75.2 °F 94% 30.11 in 1.8 mi East 4.6 mph - N/A   Overcast
10:15 AM 75.2 °F - 75.2 °F 100% 30.11 in 5.0 mi ENE 3.5 mph - N/A   Overcast
10:35 AM 77.0 °F - 75.2 °F 94% 30.11 in 5.0 mi NE 4.6 mph - N/A   Overcast
10:55 AM 78.8 °F - 75.2 °F 89% 30.12 in 10.0 mi ENE 5.8 mph - N/A   Mostly Cloudy
11:15 AM 78.8 °F - 75.2 °F 89% 30.12 in 10.0 mi ENE 4.6 mph - N/A   Mostly Cloudy
11:35 AM 80.6 °F 86.2 °F 75.2 °F 84% 30.13 in 10.0 mi ENE 5.8 mph - N/A   Mostly Cloudy
11:55 AM 80.6 °F 86.2 °F 75.2 °F 84% 30.12 in 10.0 mi ENE 4.6 mph - N/A   Mostly Cloudy
12:15 PM 82.4 °F 89.5 °F 75.2 °F 79% 30.12 in 10.0 mi ENE 5.8 mph - N/A   Mostly Cloudy
12:35 PM 82.4 °F 89.5 °F 75.2 °F 79% 30.12 in 10.0 mi ENE 6.9 mph - N/A   Overcast
12:55 PM 84.2 °F 92.3 °F 75.2 °F 74% 30.11 in 10.0 mi NE 5.8 mph - N/A   Overcast
1:15 PM 82.4 °F 89.5 °F 75.2 °F 79% 30.11 in 10.0 mi ENE 8.1 mph - N/A   Overcast
1:35 PM 84.2 °F 92.3 °F 75.2 °F 74% 30.11 in 10.0 mi ENE 3.5 mph - N/A   Overcast
1:55 PM 84.2 °F 92.3 °F 75.2 °F 74% 30.11 in 10.0 mi East 8.1 mph - N/A   Overcast
2:15 PM 84.2 °F 92.3 °F 75.2 °F 74% 30.11 in 10.0 mi East 8.1 mph - N/A   Scattered Clouds
2:35 PM 87.8 °F 97.6 °F 75.2 °F 66% 30.10 in 10.0 mi East 11.5 mph 16.1 mph N/A   Clear
2:55 PM 87.8 °F 97.6 °F 75.2 °F 66% 30.10 in 10.0 mi East 10.4 mph 17.3 mph N/A   Scattered Clouds
3:15 PM 87.8 °F 97.6 °F 75.2 °F 66% 30.09 in 10.0 mi ESE 8.1 mph - N/A   Scattered Clouds
3:35 PM 87.8 °F 97.6 °F 75.2 °F 66% 30.08 in 10.0 mi NE 10.4 mph - N/A   Clear
3:55 PM 87.8 °F 97.6 °F 75.2 °F 66% 30.08 in 10.0 mi East 9.2 mph - N/A   Scattered Clouds
4:15 PM 89.6 °F 99.8 °F 75.2 °F 62% 30.08 in 10.0 mi East 8.1 mph - N/A   Scattered Clouds
4:35 PM 87.8 °F 95.6 °F 73.4 °F 62% 30.07 in 10.0 mi East 5.8 mph - N/A   Clear
4:55 PM 89.6 °F 98.2 °F 73.4 °F 59% 30.06 in 10.0 mi ENE 5.8 mph - N/A   Scattered Clouds
5:15 PM 87.8 °F 95.6 °F 73.4 °F 62% 30.06 in 10.0 mi East 6.9 mph - N/A   Clear
5:35 PM 89.6 °F 98.2 °F 73.4 °F 59% 30.06 in 10.0 mi ENE 5.8 mph - N/A   Clear
5:55 PM 84.2 °F 90.9 °F 73.4 °F 70% 30.08 in 10.0 mi ENE 19.6 mph 27.6 mph N/A   Scattered Clouds
6:15 PM 78.8 °F - 71.6 °F 78% 30.09 in 10.0 mi ENE 15.0 mph 20.7 mph N/A   Mostly Cloudy
6:35 PM 75.2 °F - 71.6 °F 89% 30.08 in 10.0 mi ENE 6.9 mph 19.6 mph N/A   Scattered Clouds
6:55 PM 75.2 °F - 71.6 °F 89% 30.09 in 10.0 mi Calm Calm - N/A   Scattered Clouds
7:15 PM 78.8 °F - 71.6 °F 78% 30.09 in 10.0 mi NE 5.8 mph - N/A   Scattered Clouds
7:35 PM 78.8 °F - 73.4 °F 83% 30.08 in 10.0 mi ENE 4.6 mph - N/A   Scattered Clouds
7:55 PM 78.8 °F - 73.4 °F 83% 30.09 in 10.0 mi ENE 5.8 mph - N/A   Clear
8:15 PM 78.8 °F - 75.2 °F 89% 30.10 in 10.0 mi East 4.6 mph - N/A   Clear
8:35 PM 78.8 °F - 75.2 °F 89% 30.10 in 10.0 mi East 5.8 mph - N/A   Clear
8:55 PM 77.0 °F - 75.2 °F 94% 30.12 in 10.0 mi ENE 3.5 mph - N/A   Scattered Clouds
9:15 PM 77.0 °F - 75.2 °F 94% 30.11 in 10.0 mi ENE 4.6 mph - N/A   Mostly Cloudy
9:35 PM 77.0 °F - 75.2 °F 94% 30.12 in 10.0 mi ENE 5.8 mph - N/A   Mostly Cloudy
9:55 PM 75.2 °F - 75.2 °F 100% 30.12 in 10.0 mi East 4.6 mph - N/A   Scattered Clouds
10:15 PM 75.2 °F - 75.2 °F 100% 30.12 in 10.0 mi East 4.6 mph - N/A   Clear
10:35 PM 75.2 °F - 75.2 °F 100% 30.12 in 10.0 mi East 3.5 mph - N/A   Clear
10:55 PM 75.2 °F - 75.2 °F 100% 30.12 in 10.0 mi NE 3.5 mph - N/A   Clear
11:15 PM 75.2 °F - 75.2 °F 100% 30.13 in 10.0 mi Calm Calm - N/A   Scattered Clouds
11:35 PM 75.2 °F - 75.2 °F 100% 30.12 in 10.0 mi Calm Calm - N/A   Scattered Clouds
11:55 PM 75.2 °F - 75.2 °F 100% 30.13 in 7.0 mi Calm Calm - N/A   Scattered Clouds